Weather History for Carbondale, IL

Change the Weather History Date:

Thursday, February 21, 2013

  Actual Average Record
Temperature  
Mean Temperature 31 °F -  
Max Temperature 36 °F 50 °F 73 °F (1930)
Min Temperature 26 °F 27 °F 3 °F (1963)
Degree Days  
Heating Degree Days 34    
Moisture  
Dew Point 25 °F    
Average Humidity 78    
Maximum Humidity 89    
Minimum Humidity 59    
Precipitation  
Precipitation 0.54 in - - ()
Sea Level Pressure  
Sea Level Pressure 30.02 in    
Wind  
Wind Speed 10 mph (East)    
Max Wind Speed 24 mph    
Max Gust Speed 37 mph    
Visibility 5 miles    
Events Rain , Snow    
Averages and records for this station are not official NWS values.
T = Trace of Precipitation, MM = Missing Value Source: NWS Daily Summary

Daily Weather History Graph

Daily Weather History Graph

Search for Another Location

Airport:

Trip Planner

Search our weather history database for the weather conditions in past years. The results will help you decide how hot, cold, wet, or windy it might be!

Date:

Astronomy

Feb. 21, 2013 Rise Set
Actual Time 6:38 AM CST 5:42 PM CST
Civil Twilight 6:12 AM CST 6:09 PM CST
Nautical Twilight 5:41 AM CST 6:39 PM CST
Astronomical Twilight 5:11 AM CST 7:10 PM CST
Moon 2:00 PM CST (2/21) 3:40 AM CST (2/21)
Length of Visible Light 11h 56m
Length of Day
11h 03m
Waxing Gibbous, 84% of the Moon is Illuminated
Feb 21
Waxing Gibbous
Feb 25
Full
Mar 4
Last Quarter
Mar 11
New
Mar 19
First Quarter

Hourly Weather History & Observations

Time (CST) Temp. Windchill Dew Point Humidity Pressure Visibility Wind Dir Wind Speed Gust Speed Precip Events Conditions
12:52 AM 27.0 °F 21.6 °F 17.1 °F 66% 30.33 in 10.0 mi ENE 4.6 mph - N/A   Clear
1:52 AM 26.1 °F 18.4 °F 16.0 °F 66% 30.30 in 10.0 mi NE 6.9 mph - N/A   Clear
2:52 AM 26.1 °F 20.5 °F 16.0 °F 66% 30.31 in 10.0 mi ENE 4.6 mph - N/A   Clear
3:52 AM 26.1 °F 19.4 °F 16.0 °F 66% 30.29 in 10.0 mi ENE 5.8 mph - N/A   Clear
4:52 AM 26.1 °F 20.5 °F 16.0 °F 66% 30.29 in 10.0 mi East 4.6 mph - N/A   Partly Cloudy
7:52 AM 28.0 °F 18.1 °F 17.1 °F 63% 30.25 in 10.0 mi East 11.5 mph - N/A   Mostly Cloudy
8:52 AM 30.0 °F 22.4 °F 17.1 °F 59% 30.27 in 10.0 mi ESE 8.1 mph 17.3 mph N/A   Overcast
9:47 AM 30.2 °F 20.2 °F 17.6 °F 60% 30.20 in 10.0 mi East 12.7 mph - 0.00 in   Light Hail
9:52 AM 30.0 °F 20.5 °F 17.1 °F 59% 30.20 in 10.0 mi ENE 11.5 mph - 0.00 in   Light Hail
10:20 AM 30.2 °F 18.5 °F 19.4 °F 64% 30.16 in 5.0 mi East 17.3 mph 20.7 mph 0.01 in Rain Light Freezing Rain
10:52 AM 30.9 °F 20.2 °F 21.9 °F 69% 30.16 in 10.0 mi East 15.0 mph 20.7 mph 0.06 in   Light Ice Pellets
11:52 AM 30.9 °F 18.7 °F 23.0 °F 72% 30.04 in 5.0 mi East 19.6 mph 25.3 mph 0.03 in Rain Light Freezing Rain
1:45 PM 30.2 °F 24.3 °F 24.8 °F 80% 30.08 in 5.0 mi North 5.8 mph - 0.06 in Rain Light Freezing Rain
1:52 PM 30.9 °F 24.3 °F 24.1 °F 76% 30.10 in 4.0 mi NNE 6.9 mph - 0.08 in Rain Light Freezing Rain
2:19 PM 30.2 °F 23.4 °F 24.8 °F 80% 30.11 in 1.8 mi NNE 6.9 mph - N/A Rain , Snow Light Freezing Rain
2:27 PM 30.2 °F 21.9 °F 24.8 °F 80% 30.10 in 1.5 mi NNE 9.2 mph - N/A Snow Light Snow
2:39 PM 30.2 °F 21.3 °F 24.8 °F 80% 30.08 in 0.8 mi NE 10.4 mph - N/A Snow Light Snow
2:46 PM 30.2 °F 21.3 °F 24.8 °F 80% 30.07 in 0.8 mi NE 10.4 mph - N/A Snow Snow
2:52 PM 30.0 °F 20.5 °F 25.0 °F 82% 30.07 in 0.8 mi NE 11.5 mph - N/A Snow Snow
3:07 PM 30.2 °F 20.8 °F 24.8 °F 80% 30.06 in 1.8 mi NE 11.5 mph - 0.04 in Snow Light Snow
3:14 PM 30.2 °F 20.8 °F 26.6 °F 86% 30.05 in 2.5 mi ENE 11.5 mph 20.7 mph 0.05 in   Light Ice Pellets
3:24 PM 30.2 °F 19.8 °F 26.6 °F 86% 30.03 in 2.5 mi NE 13.8 mph - 0.09 in Rain Light Freezing Rain
3:42 PM 32.0 °F 21.6 °F 26.6 °F 80% 29.99 in 2.5 mi ENE 15.0 mph 25.3 mph 0.14 in Rain Light Freezing Rain
3:52 PM 30.9 °F 17.8 °F 27.0 °F 85% 29.97 in 2.0 mi ENE 23.0 mph 27.6 mph 0.18 in Rain Light Freezing Rain
3:57 PM 32.0 °F 18.9 °F 26.6 °F 80% 29.94 in 3.0 mi East 24.2 mph 31.1 mph 0.00 in Rain Light Freezing Rain
4:16 PM 32.0 °F 19.5 °F 26.6 °F 80% 29.94 in 4.0 mi East 21.9 mph 36.8 mph 0.01 in Rain Light Freezing Rain
4:52 PM 32.0 °F 22.1 °F 28.0 °F 85% 29.92 in 4.0 mi East 13.8 mph 33.4 mph 0.03 in Rain Light Freezing Rain
5:09 PM 32.0 °F 22.5 °F 26.6 °F 80% 29.91 in 7.0 mi East 12.7 mph - 0.00 in   Overcast
5:29 PM 33.8 °F 24.8 °F 26.6 °F 75% 29.92 in 5.0 mi East 12.7 mph - 0.00 in Rain Light Freezing Rain
5:52 PM 33.1 °F 23.4 °F 28.0 °F 82% 29.91 in 5.0 mi East 13.8 mph - 0.02 in Rain Light Freezing Rain
6:27 PM 33.8 °F 23.9 °F 28.4 °F 81% 29.90 in 2.5 mi East 15.0 mph 20.7 mph 0.04 in Rain Light Freezing Rain
6:36 PM 33.8 °F 24.3 °F 28.4 °F 81% 29.89 in 3.0 mi East 13.8 mph - 0.06 in Rain Light Freezing Rain
6:52 PM 33.1 °F 23.9 °F 28.9 °F 85% 29.91 in 4.0 mi East 12.7 mph - 0.09 in Rain Light Freezing Rain
7:01 PM 33.8 °F 24.3 °F 28.4 °F 81% 29.90 in 3.0 mi ESE 13.8 mph 23.0 mph 0.01 in Rain Light Freezing Rain
7:14 PM 33.8 °F 26.4 °F 30.2 °F 87% 29.89 in 4.0 mi East 9.2 mph - 0.03 in Rain Light Rain
7:21 PM 33.8 °F 25.8 °F 30.2 °F 87% 29.89 in 4.0 mi ESE 10.4 mph 18.4 mph 0.04 in Rain Light Freezing Rain
7:40 PM 33.8 °F 24.8 °F 30.2 °F 87% 29.90 in 2.5 mi ESE 12.7 mph - 0.04 in Rain Light Freezing Rain
7:48 PM 33.8 °F 25.3 °F 30.2 °F 87% 29.89 in 3.0 mi ESE 11.5 mph - 0.04 in Rain Light Freezing Rain
7:52 PM 34.0 °F 26.6 °F 30.0 °F 85% 29.91 in 3.0 mi ESE 9.2 mph - 0.04 in Rain Light Freezing Rain
8:52 PM 35.1 °F 27.9 °F 30.9 °F 85% 29.86 in 8.0 mi ESE 9.2 mph - 0.00 in Rain Light Freezing Rain
9:20 PM 35.6 °F 30.7 °F 30.2 °F 81% 29.86 in 9.0 mi SE 5.8 mph - 0.00 in   Overcast
9:52 PM 36.0 °F - 30.9 °F 82% 29.87 in 10.0 mi Calm Calm - 0.00 in   Overcast
10:39 PM 35.6 °F 31.7 °F 30.2 °F 81% 29.85 in 2.5 mi ESE 4.6 mph - 0.00 in   Overcast
10:52 PM 35.1 °F 31.0 °F 30.9 °F 85% 29.86 in 2.5 mi ESE 4.6 mph - 0.01 in   Overcast
11:15 PM 35.6 °F 31.7 °F 32.0 °F 87% 29.83 in 3.0 mi ESE 4.6 mph - N/A   Overcast
11:52 PM 35.1 °F 31.0 °F 32.0 °F 89% 29.83 in 5.0 mi SE 4.6 mph - N/A   Overcast